Voltar ao catálogo

ONEWEB-0709

AtivoComunicaçõesPO
NORAD 55172·PAYLOAD·🇬🇧 United Kingdom

Lançado Jan 10, 2023 de Cape Canaveral Space Force Station

Loading…

Próximas Passagens (próximas 24 horas)

TLE

AtualizadoSource: CelesTrak SupGP

Época: Sep 14, 2026, 22:49 UTC

1 55172C 23004AJ  26257.95118056 -.00002564  00000+0 -72443-2 0  2573
2 55172  87.8956   3.2301 0001057  81.3633  21.7963 13.11414411    11

Acompanhe ONEWEB-0709 em tempo real com AllMySat

Download on the App Store